| time (UTC) | temp F | wind direction | speed knots | gust knots | rain 1hr in | rain 24hr in | rain mn in | humidity % | barometer mb |
| 20260507090017 | 62 | 89 | 3.5 | 6.1 | 0.00 | 0.18 | 0.00 | 70 | 1014.2 |
| 20260507085516 | 62 | 99 | 2.6 | 7.8 | 0.00 | 0.20 | 0.00 | 75 | 1014.1 |
| 20260507085017 | 62 | 86 | 2.6 | 7.8 | 0.00 | 0.20 | 0.00 | 72 | 1014.2 |
| 20260507084517 | 62 | 76 | 1.7 | 6.1 | 0.00 | 0.20 | 0.00 | 74 | 1014.3 |
| 20260507084017 | 62 | 129 | 1.7 | 5.2 | 0.00 | 0.20 | 0.00 | 78 | 1014.3 |
| 20260507083528 | 61 | 91 | 2.6 | 5.2 | 0.00 | 0.20 | 0.00 | 78 | 1014.4 |
| 20260507083028 | 61 | 169 | 2.6 | 5.2 | 0.00 | 0.20 | 0.00 | 79 | 1014.3 |
| 20260507082517 | 61 | 124 | 1.7 | 5.2 | 0.00 | 0.20 | 0.00 | 78 | 1014.4 |
| 20260507082017 | 61 | 141 | 0.9 | 3.5 | 0.00 | 0.20 | 0.00 | 83 | 1014.4 |
| 20260507081517 | 60 | 120 | 1.7 | 4.3 | 0.00 | 0.20 | 0.00 | 83 | 1014.5 |
| 20260507081017 | 59 | 101 | 1.7 | 4.3 | 0.00 | 0.20 | 0.00 | 83 | 1014.5 |
| 20260507080517 | 59 | 91 | 1.7 | 5.2 | 0.00 | 0.20 | 0.00 | 85 | 1014.4 |
| 20260507080017 | 58 | 94 | 2.6 | 5.2 | 0.00 | 0.20 | 0.00 | 85 | 1014.5 |
| 20260507075517 | 58 | 108 | 0.9 | 3.5 | 0.00 | 0.20 | 0.00 | 87 | 1014.5 |
| 20260507075017 | 58 | 100 | 0.0 | 2.6 | 0.00 | 0.20 | 0.00 | 88 | 1014.4 |
| 20260507074517 | 57 | 91 | 1.7 | 2.6 | 0.00 | 0.20 | 0.00 | 88 | 1014.5 |
| 20260507074017 | 57 | 150 | 0.9 | 4.3 | 0.00 | 0.20 | 0.00 | 91 | 1014.4 |
| 20260507073517 | 56 | 136 | 0.9 | 4.3 | 0.00 | 0.20 | 0.00 | 91 | 1014.5 |
| 20260507073017 | 55 | 82 | 1.7 | 4.3 | 0.00 | 0.20 | 0.00 | 92 | 1014.6 |
| 20260507072528 | 55 | 93 | 1.7 | 3.5 | 0.00 | 0.20 | 0.00 | 92 | 1014.6 |
| 20260507072017 | 55 | 86 | 1.7 | 3.5 | 0.00 | 0.20 | 0.00 | 94 | 1014.7 |
| 20260507071529 | 55 | 143 | 0.9 | 2.6 | 0.00 | 0.20 | 0.00 | 94 | 1014.6 |
| 20260507071017 | 54 | 113 | 0.0 | 0.9 | 0.00 | 0.20 | 0.00 | 95 | 1014.5 |
| 20260507070539 | 53 | 163 | 0.0 | 0.0 | 0.00 | 0.20 | 0.00 | 95 | 1014.6 |
| 20260507070017 | 52 | 163 | 0.0 | 0.0 | 0.00 | 0.20 | 0.00 | 95 | 1014.5 |
| 20260507065529 | 52 | 163 | 0.0 | 0.0 | 0.00 | 0.20 | 0.00 | 94 | 1014.5 |
| 20260507065017 | 52 | 163 | 0.0 | 0.0 | 0.00 | 0.20 | 0.00 | 95 | 1014.6 |
| 20260507064517 | 50 | 163 | 0.0 | 0.0 | 0.00 | 0.20 | 0.00 | 95 | 1014.5 |
| 20260507064017 | 49 | 163 | 0.0 | 0.0 | 0.00 | 0.20 | 0.00 | 96 | 1014.4 |
| 20260507063518 | 48 | 163 | 0.0 | 0.0 | 0.00 | 0.20 | 0.00 | 96 | 1014.4 |
| 20260507063017 | 47 | 163 | 0.0 | 0.0 | 0.00 | 0.20 | 0.00 | 96 | 1014.3 |
| 20260507062517 | 45 | 163 | 0.0 | 0.0 | 0.00 | 0.20 | 0.00 | 96 | 1014.5 |
| 20260507062018 | 44 | 163 | 0.0 | 0.0 | 0.00 | 0.20 | 0.00 | 96 | 1014.6 |
| 20260507061517 | 43 | 163 | 0.0 | 0.0 | 0.00 | 0.20 | 0.00 | 96 | 1014.7 |
| 20260507061017 | 42 | 163 | 0.0 | 0.0 | 0.00 | 0.20 | 0.00 | 96 | 1014.6 |
| 20260507060517 | 41 | 163 | 0.0 | 0.0 | 0.00 | 0.20 | 0.00 | 96 | 1014.6 |
| 20260507060017 | 41 | 163 | 0.0 | 0.0 | 0.00 | 0.20 | 0.00 | 96 | 1014.6 |
| 20260507055517 | 40 | 163 | 0.0 | 0.0 | 0.00 | 0.20 | 0.00 | 96 | 1014.5 |
| 20260507055017 | 40 | 163 | 0.0 | 0.0 | 0.00 | 0.20 | 0.00 | 95 | 1014.5 |
| 20260507054518 | 39 | 163 | 0.0 | 0.0 | 0.00 | 0.20 | 0.00 | 95 | 1014.4 |
| 20260507054017 | 39 | 163 | 0.0 | 0.0 | 0.00 | 0.20 | 0.00 | 95 | 1014.3 |
| 20260507053517 | 39 | 163 | 0.0 | 0.0 | 0.00 | 0.20 | 0.00 | 95 | 1014.4 |
| 20260507053018 | 38 | 163 | 0.0 | 0.0 | 0.00 | 0.20 | 0.00 | 95 | 1014.3 |
| 20260507052528 | 38 | 163 | 0.0 | 0.0 | 0.00 | 0.20 | 0.00 | 94 | 1014.2 |
| 20260507052017 | 38 | 163 | 0.0 | 0.0 | 0.00 | 0.20 | 0.00 | 94 | 1014.3 |
| 20260507051518 | 38 | 163 | 0.0 | 0.0 | 0.00 | 0.20 | 0.00 | 94 | 1014.3 |
| 20260507051017 | 38 | 163 | 0.0 | 0.0 | 0.00 | 0.20 | 0.00 | 94 | 1014.2 |
| 20260507050517 | 38 | 163 | 0.0 | 0.0 | 0.00 | 0.20 | 0.00 | 94 | 1014.2 |
| 20260507050017 | 38 | 163 | 0.0 | 0.0 | 0.00 | 0.20 | 0.00 | 94 | 1014.2 |
| 20260507045517 | 38 | 163 | 0.0 | 0.0 | 0.00 | 0.20 | 0.00 | 94 | 1014.2 |
| 20260507045018 | 38 | 163 | 0.0 | 0.0 | 0.00 | 0.20 | 0.00 | 94 | 1014.2 |
| 20260507044517 | 38 | 163 | 0.0 | 0.0 | 0.00 | 0.20 | 0.00 | 94 | 1014.2 |
| 20260507044017 | 38 | 163 | 0.0 | 0.0 | 0.00 | 0.20 | 0.00 | 95 | 1014.2 |
| 20260507043517 | 39 | 163 | 0.0 | 0.0 | 0.00 | 0.20 | 0.00 | 95 | 1014.2 |
| 20260507043018 | 38 | 163 | 0.0 | 0.0 | 0.00 | 0.20 | 0.00 | 94 | 1014.3 |
| 20260507042518 | 38 | 163 | 0.0 | 0.0 | 0.00 | 0.20 | 0.00 | 94 | 1014.3 |
| 20260507042017 | 38 | 163 | 0.0 | 0.0 | 0.00 | 0.20 | 0.00 | 94 | 1014.3 |
| 20260507041517 | 39 | 163 | 0.0 | 0.0 | 0.00 | 0.20 | 0.00 | 94 | 1014.4 |
| 20260507041016 | 39 | 163 | 0.0 | 0.0 | 0.00 | 0.20 | 0.00 | 94 | 1014.3 |
| 20260507040517 | 39 | 163 | 0.0 | 0.0 | 0.00 | 0.20 | 0.00 | 94 | 1014.3 |
| 20260507040017 | 39 | 163 | 0.0 | 0.0 | 0.00 | 0.20 | 0.00 | 94 | 1014.3 |
| 20260507035517 | 39 | 163 | 0.0 | 0.0 | 0.00 | 0.23 | 0.00 | 94 | 1014.3 |
| 20260507035016 | 39 | 163 | 0.0 | 0.0 | 0.00 | 0.23 | 0.00 | 94 | 1014.3 |
| 20260507034516 | 40 | 163 | 0.0 | 0.0 | 0.00 | 0.23 | 0.00 | 94 | 1014.3 |
| 20260507034017 | 40 | 163 | 0.0 | 0.0 | 0.00 | 0.23 | 0.00 | 94 | 1014.3 |
| 20260507033517 | 40 | 163 | 0.0 | 0.0 | 0.00 | 0.23 | 0.00 | 94 | 1014.3 |
| 20260507033017 | 40 | 163 | 0.0 | 0.0 | 0.00 | 0.23 | 0.00 | 94 | 1014.4 |
| 20260507032518 | 40 | 163 | 0.0 | 0.0 | 0.00 | 0.23 | 0.00 | 94 | 1014.4 |
| 20260507032017 | 40 | 163 | 0.0 | 0.0 | 0.00 | 0.23 | 0.00 | 94 | 1014.3 |
| 20260507031517 | 40 | 163 | 0.0 | 0.0 | 0.00 | 0.23 | 0.00 | 94 | 1014.3 |
| 20260507031016 | 40 | 163 | 0.0 | 0.0 | 0.00 | 0.23 | 0.00 | 94 | 1014.4 |
| 20260507030516 | 40 | 163 | 0.0 | 0.0 | 0.00 | 0.23 | 0.00 | 94 | 1014.4 |
| 20260507030028 | 41 | 163 | 0.0 | 0.0 | 0.00 | 0.23 | 0.00 | 95 | 1014.4 |
| 20260507025517 | 40 | 163 | 0.0 | 0.0 | 0.00 | 0.25 | 0.00 | 94 | 1014.4 |
| 20260507025017 | 40 | 163 | 0.0 | 0.0 | 0.00 | 0.25 | 0.00 | 94 | 1014.4 |
| 20260507024517 | 41 | 163 | 0.0 | 0.0 | 0.00 | 0.25 | 0.00 | 94 | 1014.4 |
| 20260507024029 | 41 | 163 | 0.0 | 0.0 | 0.00 | 0.25 | 0.00 | 94 | 1014.3 |
| 20260507023517 | 41 | 163 | 0.0 | 0.0 | 0.00 | 0.25 | 0.00 | 94 | 1014.4 |
| 20260507023017 | 41 | 163 | 0.0 | 0.0 | 0.00 | 0.25 | 0.00 | 94 | 1014.4 |
| 20260507022517 | 41 | 163 | 0.0 | 0.0 | 0.00 | 0.25 | 0.00 | 94 | 1014.4 |
| 20260507022018 | 42 | 163 | 0.0 | 0.0 | 0.00 | 0.25 | 0.00 | 94 | 1014.4 |
| 20260507021528 | 42 | 163 | 0.0 | 0.0 | 0.00 | 0.25 | 0.00 | 94 | 1014.4 |
| 20260507021028 | 42 | 163 | 0.0 | 0.0 | 0.00 | 0.25 | 0.00 | 94 | 1014.5 |
| 20260507020528 | 42 | 163 | 0.0 | 0.0 | 0.00 | 0.25 | 0.00 | 94 | 1014.4 |
| 20260507020029 | 42 | 163 | 0.0 | 0.0 | 0.00 | 0.25 | 0.00 | 94 | 1014.4 |
| 20260507015516 | 42 | 163 | 0.0 | 0.0 | 0.00 | 0.25 | 0.00 | 94 | 1014.4 |
| 20260507015016 | 42 | 163 | 0.0 | 0.0 | 0.00 | 0.25 | 0.00 | 94 | 1014.4 |
| 20260507014516 | 42 | 163 | 0.0 | 0.0 | 0.00 | 0.25 | 0.00 | 94 | 1014.4 |
| 20260507014017 | 43 | 163 | 0.0 | 0.0 | 0.00 | 0.25 | 0.00 | 94 | 1014.4 |
| 20260507013528 | 43 | 163 | 0.0 | 0.0 | 0.00 | 0.25 | 0.00 | 94 | 1014.4 |
| 20260507013017 | 43 | 163 | 0.0 | 0.0 | 0.00 | 0.25 | 0.00 | 93 | 1014.5 |
| 20260507012517 | 43 | 163 | 0.0 | 0.0 | 0.00 | 0.25 | 0.00 | 93 | 1014.6 |
| 20260507012029 | 44 | 163 | 0.0 | 0.0 | 0.00 | 0.25 | 0.00 | 94 | 1014.6 |
| 20260507011518 | 44 | 163 | 0.0 | 0.0 | 0.00 | 0.25 | 0.00 | 94 | 1014.6 |
| 20260507011017 | 44 | 163 | 0.0 | 0.0 | 0.00 | 0.25 | 0.00 | 94 | 1014.5 |
| 20260507010518 | 44 | 163 | 0.0 | 0.0 | 0.00 | 0.25 | 0.00 | 94 | 1014.5 |
| 20260507010018 | 45 | 163 | 0.0 | 0.0 | 0.00 | 0.25 | 0.00 | 93 | 1014.5 |
| 20260507005529 | 45 | 163 | 0.0 | 0.0 | 0.00 | 0.25 | 0.00 | 94 | 1014.6 |
| 20260507005017 | 45 | 163 | 0.0 | 0.0 | 0.00 | 0.25 | 0.00 | 94 | 1014.6 |
| 20260507004529 | 46 | 163 | 0.0 | 0.0 | 0.00 | 0.25 | 0.00 | 94 | 1014.6 |
| 20260507004028 | 46 | 163 | 0.0 | 0.0 | 0.00 | 0.25 | 0.00 | 94 | 1014.7 |
| 20260507003517 | 46 | 163 | 0.0 | 0.0 | 0.00 | 0.25 | 0.00 | 94 | 1014.8 |
| 20260507003017 | 46 | 163 | 0.0 | 0.0 | 0.00 | 0.25 | 0.00 | 94 | 1014.8 |
| 20260507002517 | 46 | 163 | 0.0 | 0.0 | 0.00 | 0.25 | 0.00 | 94 | 1014.9 |
| 20260507002017 | 46 | 163 | 0.0 | 0.0 | 0.00 | 0.25 | 0.00 | 94 | 1015.0 |
| 20260507001518 | 46 | 163 | 0.0 | 0.0 | 0.00 | 0.25 | 0.00 | 94 | 1015.0 |
| 20260507000018 | 45 | 163 | 0.0 | 0.0 | 0.00 | 0.25 | 0.00 | 94 | 1015.1 |
| 20260506235518 | 45 | 163 | 0.0 | 0.0 | 0.00 | 0.25 | 0.00 | 94 | 1015.2 |
| 20260506235019 | 44 | 163 | 0.0 | 0.0 | 0.00 | 0.25 | 0.00 | 94 | 1015.2 |
| 20260506234528 | 44 | 163 | 0.0 | 0.0 | 0.00 | 0.25 | 0.00 | 93 | 1015.1 |
| 20260506234017 | 44 | 163 | 0.0 | 0.0 | 0.00 | 0.25 | 0.00 | 93 | 1015.1 |
| 20260506233517 | 44 | 163 | 0.0 | 0.0 | 0.00 | 0.25 | 0.00 | 93 | 1015.0 |
| 20260506233018 | 44 | 163 | 0.0 | 0.0 | 0.00 | 0.25 | 0.00 | 93 | 1015.1 |
| 20260506232517 | 44 | 163 | 0.0 | 0.0 | 0.00 | 0.25 | 0.00 | 93 | 1015.1 |
| 20260506232017 | 44 | 163 | 0.0 | 0.0 | 0.00 | 0.25 | 0.00 | 93 | 1015.1 |
| 20260506231518 | 44 | 163 | 0.0 | 0.0 | 0.00 | 0.25 | 0.00 | 93 | 1015.2 |
| 20260506231017 | 44 | 163 | 0.0 | 0.0 | 0.00 | 0.25 | 0.00 | 93 | 1015.2 |
| 20260506230518 | 45 | 163 | 0.0 | 0.0 | 0.00 | 0.25 | 0.00 | 93 | 1015.2 |
| 20260506230017 | 45 | 163 | 0.0 | 0.0 | 0.00 | 0.25 | 0.00 | 93 | 1015.3 |
| 20260506225517 | 45 | 163 | 0.0 | 0.0 | 0.00 | 0.25 | 0.00 | 93 | 1015.3 |
| 20260506225040 | 46 | 163 | 0.0 | 0.0 | 0.00 | 0.25 | 0.00 | 93 | 1015.3 |
| 20260506224529 | 46 | 163 | 0.0 | 0.0 | 0.00 | 0.25 | 0.00 | 93 | 1015.3 |
| 20260506224017 | 46 | 163 | 0.0 | 0.0 | 0.00 | 0.25 | 0.00 | 93 | 1015.2 |
| 20260506223517 | 46 | 163 | 0.0 | 0.0 | 0.00 | 0.25 | 0.00 | 93 | 1015.2 |
| 20260506223017 | 46 | 163 | 0.0 | 0.0 | 0.00 | 0.25 | 0.00 | 92 | 1015.3 |
| 20260506222517 | 46 | 163 | 0.0 | 0.0 | 0.00 | 0.25 | 0.00 | 92 | 1015.2 |
| 20260506222018 | 46 | 163 | 0.0 | 0.0 | 0.00 | 0.25 | 0.00 | 92 | 1015.2 |
| 20260506221529 | 46 | 163 | 0.0 | 0.0 | 0.00 | 0.25 | 0.00 | 92 | 1015.2 |
| 20260506221017 | 47 | 163 | 0.0 | 0.0 | 0.00 | 0.25 | 0.00 | 92 | 1015.3 |
| 20260506220517 | 47 | 163 | 0.0 | 0.0 | 0.00 | 0.25 | 0.00 | 93 | 1015.3 |
| 20260506220029 | 47 | 163 | 0.0 | 0.0 | 0.00 | 0.25 | 0.00 | 93 | 1015.3 |
| 20260506215518 | 47 | 163 | 0.0 | 0.0 | 0.00 | 0.26 | 0.25 | 92 | 1015.4 |
| 20260506215017 | 47 | 163 | 0.0 | 0.0 | 0.00 | 0.26 | 0.25 | 92 | 1015.3 |
| 20260506214517 | 47 | 163 | 0.0 | 0.0 | 0.00 | 0.26 | 0.25 | 91 | 1015.3 |
| 20260506214018 | 47 | 163 | 0.0 | 0.0 | 0.00 | 0.26 | 0.25 | 91 | 1015.3 |
| 20260506213518 | 48 | 163 | 0.0 | 0.0 | 0.00 | 0.26 | 0.25 | 91 | 1015.3 |
| 20260506213029 | 48 | 163 | 0.0 | 0.0 | 0.00 | 0.26 | 0.25 | 91 | 1015.4 |
| 20260506212517 | 49 | 163 | 0.0 | 0.0 | 0.00 | 0.26 | 0.25 | 91 | 1015.2 |
| 20260506212018 | 49 | 163 | 0.0 | 0.0 | 0.00 | 0.26 | 0.25 | 91 | 1015.2 |
| 20260506211519 | 50 | 163 | 0.0 | 0.0 | 0.00 | 0.26 | 0.25 | 91 | 1015.3 |
| 20260506211017 | 50 | 163 | 0.0 | 0.0 | 0.00 | 0.26 | 0.25 | 91 | 1015.3 |
| 20260506210518 | 50 | 163 | 0.0 | 0.0 | 0.00 | 0.26 | 0.25 | 91 | 1015.4 |
| 20260506210018 | 50 | 163 | 0.0 | 0.0 | 0.00 | 0.26 | 0.25 | 91 | 1015.4 |
| 20260506205518 | 50 | 163 | 0.0 | 0.0 | 0.00 | 0.27 | 0.25 | 91 | 1015.4 |
| 20260506205029 | 51 | 163 | 0.0 | 0.0 | 0.00 | 0.27 | 0.25 | 90 | 1015.4 |
| 20260506204530 | 51 | 163 | 0.0 | 0.0 | 0.00 | 0.27 | 0.25 | 90 | 1015.3 |
| 20260506204019 | 51 | 163 | 0.0 | 0.0 | 0.00 | 0.27 | 0.25 | 90 | 1015.3 |
| 20260506203530 | 52 | 163 | 0.0 | 0.0 | 0.00 | 0.27 | 0.25 | 90 | 1015.2 |
| 20260506203020 | 52 | 163 | 0.0 | 0.0 | 0.00 | 0.27 | 0.25 | 90 | 1015.1 |
| 20260506202519 | 52 | 163 | 0.0 | 0.0 | 0.00 | 0.27 | 0.25 | 90 | 1015.1 |
| 20260506202020 | 53 | 163 | 0.0 | 0.0 | 0.00 | 0.27 | 0.25 | 90 | 1015.0 |
| 20260506201521 | 53 | 163 | 0.0 | 0.0 | 0.00 | 0.27 | 0.25 | 90 | 1015.0 |
| 20260506201019 | 53 | 163 | 0.0 | 0.0 | 0.00 | 0.27 | 0.25 | 90 | 1015.0 |
| 20260506200518 | 54 | 163 | 0.0 | 0.0 | 0.00 | 0.27 | 0.25 | 89 | 1014.9 |
| 20260506200018 | 54 | 163 | 0.0 | 0.0 | 0.00 | 0.27 | 0.25 | 89 | 1014.9 |
| 20260506195519 | 54 | 163 | 0.0 | 0.0 | 0.00 | 0.27 | 0.25 | 89 | 1014.9 |
| 20260506195017 | 54 | 163 | 0.0 | 0.0 | 0.00 | 0.27 | 0.25 | 89 | 1014.8 |
| 20260506194529 | 54 | 163 | 0.0 | 0.0 | 0.00 | 0.27 | 0.25 | 88 | 1014.7 |
| 20260506194019 | 54 | 163 | 0.0 | 0.0 | 0.00 | 0.27 | 0.25 | 88 | 1014.7 |
| 20260506193520 | 54 | 163 | 0.0 | 0.0 | 0.00 | 0.27 | 0.25 | 88 | 1014.6 |
| 20260506193020 | 55 | 163 | 0.0 | 0.0 | 0.00 | 0.27 | 0.25 | 87 | 1014.6 |
| 20260506192519 | 55 | 163 | 0.0 | 0.0 | 0.00 | 0.27 | 0.25 | 87 | 1014.5 |
| 20260506192018 | 55 | 163 | 0.0 | 0.0 | 0.00 | 0.27 | 0.25 | 86 | 1014.5 |
| 20260506191532 | 56 | 163 | 0.0 | 0.0 | 0.00 | 0.27 | 0.25 | 86 | 1014.4 |
| 20260506191018 | 56 | 163 | 0.0 | 0.0 | 0.00 | 0.27 | 0.25 | 86 | 1014.4 |
| 20260506190519 | 56 | 163 | 0.0 | 0.0 | 0.00 | 0.27 | 0.25 | 85 | 1014.4 |
| 20260506190018 | 57 | 163 | 0.0 | 0.0 | 0.00 | 0.27 | 0.25 | 84 | 1014.4 |
| 20260506185517 | 57 | 163 | 0.0 | 0.0 | 0.00 | 0.27 | 0.25 | 84 | 1014.4 |
| 20260506185017 | 57 | 163 | 0.0 | 0.9 | 0.00 | 0.27 | 0.25 | 83 | 1014.3 |
| 20260506184517 | 57 | 163 | 0.0 | 0.9 | 0.00 | 0.27 | 0.25 | 82 | 1014.3 |
| 20260506184017 | 58 | 251 | 0.0 | 0.9 | 0.00 | 0.27 | 0.25 | 80 | 1014.4 |
| 20260506183517 | 58 | 162 | 0.0 | 0.0 | 0.00 | 0.27 | 0.25 | 80 | 1014.3 |
| 20260506183017 | 58 | 162 | 0.0 | 0.0 | 0.00 | 0.27 | 0.25 | 79 | 1014.3 |
| 20260506182516 | 58 | 160 | 0.0 | 0.0 | 0.00 | 0.27 | 0.25 | 78 | 1014.3 |
| 20260506182017 | 59 | 153 | 0.0 | 0.0 | 0.00 | 0.27 | 0.25 | 78 | 1014.3 |
| 20260506181518 | 59 | 152 | 0.0 | 1.7 | 0.00 | 0.27 | 0.25 | 77 | 1014.2 |
| 20260506181017 | 59 | 152 | 0.0 | 1.7 | 0.00 | 0.27 | 0.25 | 77 | 1014.2 |
| 20260506180528 | 59 | 175 | 0.9 | 1.7 | 0.00 | 0.27 | 0.25 | 77 | 1014.2 |
| 20260506180017 | 59 | 122 | 0.0 | 0.0 | 0.00 | 0.27 | 0.25 | 77 | 1014.2 |
| 20260506175518 | 59 | 122 | 0.0 | 0.0 | 0.00 | 0.27 | 0.25 | 76 | 1014.1 |
| 20260506175019 | 59 | 122 | 0.0 | 3.5 | 0.00 | 0.27 | 0.25 | 76 | 1014.1 |
| 20260506174517 | 59 | 229 | 0.0 | 3.5 | 0.00 | 0.27 | 0.25 | 75 | 1014.1 |
| 20260506174017 | 59 | 136 | 0.9 | 2.6 | 0.00 | 0.27 | 0.25 | 75 | 1014.2 |
| 20260506173528 | 59 | 255 | 0.0 | 0.9 | 0.00 | 0.27 | 0.25 | 74 | 1014.1 |
| 20260506173018 | 60 | 106 | 0.0 | 3.5 | 0.00 | 0.27 | 0.25 | 74 | 1014.0 |
| 20260506172517 | 60 | 233 | 0.9 | 3.5 | 0.00 | 0.27 | 0.25 | 74 | 1014.1 |
| 20260506172020 | 60 | 124 | 0.9 | 5.2 | 0.00 | 0.27 | 0.25 | 72 | 1014.1 |
| 20260506171518 | 61 | 295 | 1.7 | 5.2 | 0.00 | 0.27 | 0.25 | 71 | 1014.2 |
| 20260506171017 | 62 | 262 | 0.9 | 2.6 | 0.00 | 0.27 | 0.25 | 71 | 1014.1 |
| 20260506170517 | 62 | 145 | 0.0 | 5.2 | 0.00 | 0.27 | 0.25 | 71 | 1014.1 |
| 20260506170029 | 62 | 231 | 0.9 | 6.1 | 0.00 | 0.27 | 0.25 | 70 | 1014.1 |
| 20260506165517 | 63 | 279 | 0.9 | 4.3 | 0.00 | 0.27 | 0.25 | 70 | 1014.0 |
| 20260506165028 | 63 | 351 | 0.9 | 4.3 | 0.00 | 0.27 | 0.25 | 71 | 1014.0 |
| 20260506164518 | 63 | 98 | 0.9 | 5.2 | 0.00 | 0.27 | 0.25 | 70 | 1014.1 |
| 20260506164017 | 63 | 180 | 1.7 | 5.2 | 0.00 | 0.27 | 0.25 | 69 | 1014.0 |
| 20260506163518 | 63 | 24 | 1.7 | 7.8 | 0.00 | 0.27 | 0.25 | 69 | 1013.9 |
| 20260506163018 | 63 | 221 | 1.7 | 7.8 | 0.00 | 0.27 | 0.25 | 70 | 1013.9 |
| 20260506162517 | 62 | 101 | 0.9 | 7.0 | 0.00 | 0.27 | 0.25 | 69 | 1013.9 |
| 20260506162028 | 62 | 241 | 1.7 | 7.0 | 0.00 | 0.27 | 0.25 | 69 | 1013.9 |
| 20260506161530 | 63 | 66 | 1.7 | 10.4 | 0.00 | 0.27 | 0.25 | 68 | 1013.9 |
| 20260506161018 | 63 | 275 | 0.9 | 6.1 | 0.00 | 0.27 | 0.25 | 70 | 1013.9 |
| 20260506160520 | 63 | 246 | 3.5 | 6.1 | 0.00 | 0.27 | 0.25 | 68 | 1013.9 |
| 20260506160019 | 62 | 58 | 1.7 | 7.0 | 0.00 | 0.27 | 0.25 | 70 | 1013.9 |
| 20260506155517 | 62 | 252 | 1.7 | 7.0 | 0.00 | 0.27 | 0.25 | 69 | 1014.0 |
| 20260506155018 | 63 | 231 | 1.7 | 5.2 | 0.00 | 0.27 | 0.25 | 69 | 1014.0 |
| 20260506154518 | 63 | 74 | 1.7 | 7.8 | 0.00 | 0.27 | 0.25 | 71 | 1014.0 |
| 20260506154017 | 62 | 261 | 2.6 | 7.8 | 0.00 | 0.27 | 0.25 | 71 | 1014.1 |
| 20260506153518 | 62 | 101 | 1.7 | 6.1 | 0.00 | 0.27 | 0.25 | 71 | 1014.0 |
| 20260506153018 | 63 | 81 | 1.7 | 5.2 | 0.00 | 0.27 | 0.25 | 70 | 1014.0 |
| 20260506152529 | 62 | 216 | 2.6 | 7.8 | 0.00 | 0.27 | 0.25 | 69 | 1014.0 |
| 20260506152017 | 62 | 143 | 0.9 | 5.2 | 0.00 | 0.27 | 0.25 | 71 | 1014.1 |
| 20260506151518 | 62 | 83 | 0.9 | 3.5 | 0.00 | 0.27 | 0.25 | 74 | 1014.1 |
| 20260506151018 | 62 | 113 | 1.7 | 4.3 | 0.00 | 0.27 | 0.25 | 71 | 1014.1 |
| 20260506150518 | 62 | 307 | 0.9 | 5.2 | 0.00 | 0.27 | 0.25 | 71 | 1014.0 |
| 20260506150018 | 63 | 318 | 1.7 | 6.1 | 0.00 | 0.27 | 0.25 | 69 | 1014.1 |
| 20260506145518 | 63 | 67 | 0.9 | 4.3 | 0.00 | 0.27 | 0.25 | 73 | 1014.1 |
| 20260506145018 | 63 | 23 | 0.9 | 5.2 | 0.00 | 0.27 | 0.25 | 71 | 1014.1 |
| 20260506144518 | 63 | 174 | 0.9 | 7.8 | 0.00 | 0.27 | 0.25 | 72 | 1014.2 |
| 20260506144018 | 62 | 99 | 2.6 | 7.8 | 0.00 | 0.27 | 0.25 | 72 | 1014.2 |
| 20260506143518 | 62 | 96 | 1.7 | 4.3 | 0.00 | 0.27 | 0.25 | 73 | 1014.2 |
| 20260506143018 | 62 | 125 | 1.7 | 7.8 | 0.00 | 0.27 | 0.25 | 71 | 1014.2 |
| 20260506142518 | 62 | 231 | 3.5 | 7.8 | 0.00 | 0.27 | 0.25 | 73 | 1014.2 |
| 20260506142018 | 62 | 256 | 1.7 | 6.1 | 0.00 | 0.27 | 0.25 | 74 | 1014.2 |
| 20260506141518 | 62 | 293 | 1.7 | 5.2 | 0.00 | 0.27 | 0.25 | 74 | 1014.2 |
| 20260506141018 | 62 | 99 | 1.7 | 5.2 | 0.00 | 0.27 | 0.25 | 71 | 1014.2 |
| 20260506140517 | 63 | 259 | 2.6 | 10.4 | 0.00 | 0.27 | 0.25 | 72 | 1014.2 |
| 20260506140018 | 64 | 120 | 1.7 | 10.4 | 0.00 | 0.27 | 0.25 | 72 | 1014.2 |
| 20260506135518 | 64 | 129 | 1.7 | 4.3 | 0.00 | 0.27 | 0.25 | 74 | 1014.2 |
| 20260506135018 | 63 | 274 | 1.7 | 5.2 | 0.00 | 0.27 | 0.25 | 75 | 1014.2 |
| 20260506134518 | 63 | 309 | 1.7 | 5.2 | 0.00 | 0.27 | 0.25 | 73 | 1014.2 |
| 20260506134018 | 62 | 127 | 0.9 | 8.7 | 0.00 | 0.27 | 0.25 | 73 | 1014.1 |
| 20260506133518 | 62 | 274 | 2.6 | 8.7 | 0.00 | 0.27 | 0.25 | 74 | 1014.1 |
| 20260506133030 | 62 | 84 | 3.5 | 7.0 | 0.00 | 0.27 | 0.25 | 74 | 1014.1 |
| 20260506132518 | 63 | 193 | 1.7 | 4.3 | 0.00 | 0.27 | 0.25 | 75 | 1014.0 |
| 20260506132029 | 62 | 277 | 0.9 | 10.4 | 0.00 | 0.27 | 0.25 | 78 | 1013.9 |
| 20260506131519 | 62 | 274 | 2.6 | 10.4 | 0.00 | 0.27 | 0.25 | 75 | 1013.9 |
| 20260506131019 | 62 | 65 | 1.7 | 6.1 | 0.00 | 0.27 | 0.25 | 79 | 1013.9 |
| 20260506130518 | 61 | 90 | 0.9 | 5.2 | 0.00 | 0.27 | 0.25 | 82 | 1013.8 |
| 20260506130020 | 61 | 56 | 0.9 | 4.3 | 0.00 | 0.27 | 0.25 | 81 | 1013.8 |
| 20260506125518 | 61 | 65 | 1.7 | 4.3 | 0.00 | 0.27 | 0.25 | 80 | 1013.8 |
| 20260506125018 | 61 | 93 | 1.7 | 5.2 | 0.00 | 0.27 | 0.25 | 81 | 1013.8 |
| 20260506124518 | 61 | 56 | 1.7 | 6.1 | 0.00 | 0.27 | 0.25 | 82 | 1013.8 |
| 20260506124018 | 61 | 56 | 1.7 | 7.8 | 0.00 | 0.27 | 0.25 | 80 | 1013.8 |
| 20260506123518 | 61 | 65 | 0.9 | 4.3 | 0.00 | 0.27 | 0.25 | 83 | 1013.7 |
| 20260506123018 | 60 | 101 | 0.9 | 7.0 | 0.00 | 0.27 | 0.25 | 85 | 1013.7 |
| 20260506122540 | 59 | 271 | 1.7 | 7.0 | 0.00 | 0.27 | 0.25 | 85 | 1013.6 |
| 20260506122030 | 59 | 110 | 2.6 | 7.8 | 0.01 | 0.27 | 0.25 | 87 | 1013.6 |
| 20260506121531 | 59 | 245 | 1.7 | 3.5 | 0.01 | 0.27 | 0.25 | 90 | 1013.5 |
| 20260506121018 | 58 | 288 | 0.9 | 3.5 | 0.01 | 0.27 | 0.25 | 89 | 1013.6 |
| 20260506120518 | 57 | 117 | 0.0 | 4.3 | 0.02 | 0.27 | 0.25 | 90 | 1013.6 |
| 20260506120019 | 57 | 298 | 0.0 | 4.3 | 0.02 | 0.27 | 0.25 | 90 | 1013.5 |
| 20260506115519 | 57 | 250 | 1.7 | 4.3 | 0.04 | 0.28 | 0.25 | 89 | 1013.5 |
| 20260506115020 | 57 | 231 | 0.0 | 5.2 | 0.06 | 0.28 | 0.25 | 89 | 1013.5 |
| 20260506114518 | 58 | 115 | 1.7 | 6.1 | 0.13 | 0.28 | 0.25 | 90 | 1013.5 |
| 20260506114018 | 58 | 68 | 1.7 | 6.1 | 0.13 | 0.28 | 0.25 | 91 | 1013.3 |
| 20260506113518 | 58 | 256 | 1.7 | 3.5 | 0.13 | 0.28 | 0.25 | 93 | 1013.3 |
| 20260506113029 | 57 | 312 | 0.9 | 1.7 | 0.13 | 0.28 | 0.25 | 93 | 1013.4 |
| 20260506112518 | 55 | 247 | 0.0 | 2.6 | 0.13 | 0.28 | 0.25 | 92 | 1013.5 |
| 20260506112017 | 56 | 234 | 0.9 | 2.6 | 0.13 | 0.28 | 0.24 | 91 | 1013.4 |
| 20260506111517 | 56 | 297 | 0.9 | 1.7 | 0.13 | 0.28 | 0.24 | 91 | 1013.5 |
| 20260506111017 | 56 | 149 | 0.0 | 5.2 | 0.13 | 0.28 | 0.24 | 91 | 1013.5 |
| 20260506110517 | 56 | 252 | 0.9 | 5.2 | 0.11 | 0.26 | 0.23 | 91 | 1013.5 |
| 20260506110018 | 56 | 86 | 0.0 | 3.5 | 0.11 | 0.25 | 0.22 | 90 | 1013.6 |
| 20260506105517 | 56 | 113 | 0.0 | 5.2 | 0.10 | 0.46 | 0.21 | 89 | 1013.5 |
| 20260506105017 | 57 | 218 | 1.7 | 4.3 | 0.08 | 0.43 | 0.19 | 88 | 1013.5 |
| 20260506104517 | 58 | 160 | 0.9 | 7.0 | 0.01 | 0.36 | 0.12 | 89 | 1013.3 |
| 20260506104017 | 58 | 270 | 1.7 | 8.7 | 0.02 | 0.36 | 0.12 | 89 | 1013.2 |
| 20260506103517 | 58 | 354 | 1.7 | 6.1 | 0.02 | 0.36 | 0.12 | 92 | 1013.3 |
| 20260506103018 | 58 | 317 | 1.7 | 3.5 | 0.02 | 0.36 | 0.12 | 92 | 1013.2 |
| 20260506102517 | 57 | 245 | 0.9 | 4.3 | 0.03 | 0.36 | 0.12 | 92 | 1013.3 |
| 20260506102019 | 56 | 234 | 0.0 | 5.2 | 0.04 | 0.36 | 0.12 | 92 | 1013.3 |
| 20260506101518 | 56 | 248 | 0.9 | 4.3 | 0.04 | 0.36 | 0.12 | 92 | 1013.3 |
| 20260506101017 | 56 | 240 | 0.9 | 3.5 | 0.05 | 0.36 | 0.12 | 91 | 1013.3 |
| 20260506100518 | 56 | 96 | 0.9 | 2.6 | 0.05 | 0.36 | 0.12 | 91 | 1013.2 |
| 20260506100018 | 56 | 238 | 0.9 | 1.7 | 0.04 | 0.35 | 0.11 | 91 | 1013.3 |
| 20260506095517 | 56 | 252 | 0.0 | 1.7 | 0.04 | 0.46 | 0.11 | 91 | 1013.2 |
| 20260506095018 | 56 | 212 | 0.9 | 1.7 | 0.04 | 0.46 | 0.11 | 91 | 1013.2 |
| 20260506094517 | 56 | 119 | 0.0 | 0.9 | 0.04 | 0.46 | 0.11 | 90 | 1013.1 |
| 20260506094028 | 56 | 243 | 0.0 | 1.7 | 0.03 | 0.45 | 0.10 | 90 | 1013.1 |
| 20260506093529 | 56 | 146 | 0.0 | 1.7 | 0.02 | 0.44 | 0.09 | 90 | 1013.0 |
| 20260506093017 | 56 | 82 | 0.0 | 2.6 | 0.02 | 0.43 | 0.09 | 89 | 1013.1 |
| 20260506092517 | 56 | 243 | 0.9 | 5.2 | 0.02 | 0.43 | 0.09 | 89 | 1013.0 |
| 20260506092029 | 57 | 74 | 1.7 | 5.2 | 0.01 | 0.43 | 0.08 | 88 | 1012.9 |
| 20260506091519 | 57 | 79 | 1.7 | 6.1 | 0.01 | 0.42 | 0.07 | 87 | 1012.8 |
| 20260506091029 | 57 | 203 | 0.9 | 7.8 | 0.01 | 0.42 | 0.07 | 88 | 1012.7 |
| 20260506090518 | 57 | 288 | 3.5 | 7.8 | 0.01 | 0.42 | 0.07 | 88 | 1012.7 |